Year,Month,Day,Hour,Minute,Value (Times are PST for temperature in C)
2014,06,07,00,00,13.40
2014,06,07,00,01,13.40
2014,06,07,00,02,13.40
2014,06,07,00,03,13.40
2014,06,07,00,04,13.40
2014,06,07,00,05,13.40
2014,06,07,00,06,13.30
2014,06,07,00,07,13.30
2014,06,07,00,08,13.30
2014,06,07,00,09,13.30
2014,06,07,00,10,13.30
2014,06,07,00,11,13.30
2014,06,07,00,12,13.30
2014,06,07,00,13,13.30
2014,06,07,00,14,13.30
2014,06,07,00,15,13.30
2014,06,07,00,16,13.20
2014,06,07,00,17,13.20
2014,06,07,00,18,13.20
2014,06,07,00,19,13.20
2014,06,07,00,20,13.20
2014,06,07,00,21,13.20
2014,06,07,00,22,13.20
2014,06,07,00,23,13.20
2014,06,07,00,24,13.20
2014,06,07,00,25,13.20
2014,06,07,00,26,13.20
2014,06,07,00,27,13.20
2014,06,07,00,28,13.10
2014,06,07,00,29,13.10
2014,06,07,00,30,13.10
2014,06,07,00,31,13.10
2014,06,07,00,32,13.10
2014,06,07,00,33,13.10
2014,06,07,00,34,13.00
2014,06,07,00,35,13.00
2014,06,07,00,36,13.00
2014,06,07,00,37,13.00
2014,06,07,00,38,12.90
2014,06,07,00,39,12.90
2014,06,07,00,40,12.90
2014,06,07,00,41,12.90
2014,06,07,00,42,12.90
2014,06,07,00,43,12.90
2014,06,07,00,44,12.90
2014,06,07,00,45,12.80
2014,06,07,00,46,12.80
2014,06,07,00,47,12.80
2014,06,07,00,48,12.80
2014,06,07,00,49,12.80
2014,06,07,00,50,12.80
2014,06,07,00,51,12.80
2014,06,07,00,52,12.80
2014,06,07,00,53,12.80
2014,06,07,00,54,12.80
2014,06,07,00,55,12.80
2014,06,07,00,56,12.80
2014,06,07,00,57,12.80
2014,06,07,00,58,12.80
2014,06,07,00,59,12.70
2014,06,07,01,00,12.70
2014,06,07,01,01,12.70
2014,06,07,01,02,12.70
2014,06,07,01,03,12.70
2014,06,07,01,04,12.70
2014,06,07,01,05,12.70
2014,06,07,01,06,12.70
2014,06,07,01,07,12.70
2014,06,07,01,08,12.70
2014,06,07,01,09,12.70
2014,06,07,01,10,12.60
2014,06,07,01,11,12.60
2014,06,07,01,12,12.60
2014,06,07,01,13,12.60
2014,06,07,01,14,12.60
2014,06,07,01,15,12.60
2014,06,07,01,16,12.50
2014,06,07,01,17,12.50
2014,06,07,01,18,12.50
2014,06,07,01,19,12.50
2014,06,07,01,20,12.40
2014,06,07,01,21,12.40
2014,06,07,01,22,12.40
2014,06,07,01,23,12.40
2014,06,07,01,24,12.40
2014,06,07,01,25,12.40
2014,06,07,01,26,12.40
2014,06,07,01,27,12.40
2014,06,07,01,28,12.30
2014,06,07,01,29,12.30
2014,06,07,01,30,12.30
2014,06,07,01,31,12.30
2014,06,07,01,32,12.30
2014,06,07,01,33,12.30
2014,06,07,01,34,12.30
2014,06,07,01,35,12.30
2014,06,07,01,36,12.30
2014,06,07,01,37,12.30
2014,06,07,01,38,12.30
2014,06,07,01,39,12.30
2014,06,07,01,40,12.30
2014,06,07,01,41,12.20
2014,06,07,01,42,12.20
2014,06,07,01,43,12.20
2014,06,07,01,44,12.20
2014,06,07,01,45,12.20
2014,06,07,01,46,12.20
2014,06,07,01,47,12.20
2014,06,07,01,48,12.20
2014,06,07,01,49,12.20
2014,06,07,01,50,12.20
2014,06,07,01,51,12.20
2014,06,07,01,52,12.10
2014,06,07,01,53,12.10
2014,06,07,01,54,12.10
2014,06,07,01,55,12.10
2014,06,07,01,56,12.10
2014,06,07,01,57,12.10
2014,06,07,01,58,12.10
2014,06,07,01,59,12.10
2014,06,07,02,00,12.10
2014,06,07,02,01,12.10
2014,06,07,02,02,12.10
2014,06,07,02,03,12.10
2014,06,07,02,04,12.10
2014,06,07,02,05,12.10
2014,06,07,02,06,12.10
2014,06,07,02,07,12.00
2014,06,07,02,08,12.00
2014,06,07,02,09,12.00
2014,06,07,02,10,12.00
2014,06,07,02,11,12.00
2014,06,07,02,12,12.00
2014,06,07,02,13,12.00
2014,06,07,02,14,12.00
2014,06,07,02,15,11.90
2014,06,07,02,16,11.90
2014,06,07,02,17,11.90
2014,06,07,02,18,11.90
2014,06,07,02,19,11.90
2014,06,07,02,20,11.90
2014,06,07,02,21,11.90
2014,06,07,02,22,11.90
2014,06,07,02,23,11.90
2014,06,07,02,24,11.90
2014,06,07,02,25,11.90
2014,06,07,02,26,11.90
2014,06,07,02,27,11.90
2014,06,07,02,28,11.90
2014,06,07,02,29,11.90
2014,06,07,02,30,11.90
2014,06,07,02,31,11.90
2014,06,07,02,32,11.90
2014,06,07,02,33,11.90
2014,06,07,02,34,11.90
2014,06,07,02,35,11.90
2014,06,07,02,36,11.90
2014,06,07,02,37,11.90
2014,06,07,02,38,11.90
2014,06,07,02,39,11.90
2014,06,07,02,40,11.90
2014,06,07,02,41,11.90
2014,06,07,02,42,11.90
2014,06,07,02,43,11.90
2014,06,07,02,44,11.90
2014,06,07,02,45,11.90
2014,06,07,02,46,11.90
2014,06,07,02,47,11.90
2014,06,07,02,48,11.90
2014,06,07,02,49,11.80
2014,06,07,02,50,11.80
2014,06,07,02,51,11.80
2014,06,07,02,52,11.80
2014,06,07,02,53,11.80
2014,06,07,02,54,11.80
2014,06,07,02,55,11.80
2014,06,07,02,56,11.80
2014,06,07,02,57,11.80
2014,06,07,02,58,11.80
2014,06,07,02,59,11.80
2014,06,07,03,00,11.80
2014,06,07,03,01,11.80
2014,06,07,03,02,11.80
2014,06,07,03,03,11.80
2014,06,07,03,04,11.80
2014,06,07,03,05,11.80
2014,06,07,03,06,11.80
2014,06,07,03,07,11.80
2014,06,07,03,08,11.80
2014,06,07,03,09,11.80
2014,06,07,03,10,11.80
2014,06,07,03,11,11.80
2014,06,07,03,12,11.80
2014,06,07,03,13,11.80
2014,06,07,03,14,11.80
2014,06,07,03,15,11.80
2014,06,07,03,16,11.80
2014,06,07,03,17,11.80
2014,06,07,03,18,11.90
2014,06,07,03,19,11.90
2014,06,07,03,20,11.90
2014,06,07,03,21,11.90
2014,06,07,03,22,11.90
2014,06,07,03,23,11.90
2014,06,07,03,24,11.90
2014,06,07,03,25,11.90
2014,06,07,03,26,11.90
2014,06,07,03,27,11.90
2014,06,07,03,28,11.80
2014,06,07,03,29,11.90
2014,06,07,03,30,11.90
2014,06,07,03,31,11.90
2014,06,07,03,32,11.90
2014,06,07,03,33,11.90
2014,06,07,03,34,11.90
2014,06,07,03,35,11.90
2014,06,07,03,36,11.90
2014,06,07,03,37,11.90
2014,06,07,03,38,11.90
2014,06,07,03,39,11.90
2014,06,07,03,40,11.90
2014,06,07,03,41,11.90
2014,06,07,03,42,11.90
2014,06,07,03,43,11.90
2014,06,07,03,44,11.90
2014,06,07,03,45,11.90
2014,06,07,03,46,11.90
2014,06,07,03,47,11.90
2014,06,07,03,48,11.90
2014,06,07,03,49,11.90
2014,06,07,03,50,11.90
2014,06,07,03,51,11.90
2014,06,07,03,52,11.90
2014,06,07,03,53,11.90
2014,06,07,03,54,11.90
2014,06,07,03,55,11.90
2014,06,07,03,56,11.90
2014,06,07,03,57,11.90
2014,06,07,03,58,11.90
2014,06,07,03,59,11.90
2014,06,07,04,00,11.90
2014,06,07,04,01,11.90
2014,06,07,04,02,11.90
2014,06,07,04,03,11.90
2014,06,07,04,04,11.90
2014,06,07,04,05,11.90
2014,06,07,04,06,11.90
2014,06,07,04,07,11.90
2014,06,07,04,08,11.90
2014,06,07,04,09,11.90
2014,06,07,04,10,11.90
2014,06,07,04,11,11.90
2014,06,07,04,12,11.90
2014,06,07,04,13,11.90
2014,06,07,04,14,11.90
2014,06,07,04,15,11.90
2014,06,07,04,16,11.90
2014,06,07,04,17,11.90
2014,06,07,04,18,11.90
2014,06,07,04,19,11.90
2014,06,07,04,20,11.90
2014,06,07,04,21,11.90
2014,06,07,04,22,11.90
2014,06,07,04,23,11.90
2014,06,07,04,24,11.90
2014,06,07,04,25,11.90
2014,06,07,04,26,11.90
2014,06,07,04,27,11.90
2014,06,07,04,28,11.90
2014,06,07,04,29,12.00
2014,06,07,04,30,12.00
2014,06,07,04,31,12.00
2014,06,07,04,32,12.00
2014,06,07,04,33,12.00
2014,06,07,04,34,12.00
2014,06,07,04,35,12.00
2014,06,07,04,36,12.00
2014,06,07,04,37,12.00
2014,06,07,04,38,12.00
2014,06,07,04,39,12.00
2014,06,07,04,40,12.00
2014,06,07,04,41,12.00
2014,06,07,04,42,12.00
2014,06,07,04,43,12.00
2014,06,07,04,44,12.10
2014,06,07,04,45,12.10
2014,06,07,04,46,12.00
2014,06,07,04,47,12.00
2014,06,07,04,48,12.00
2014,06,07,04,49,12.00
2014,06,07,04,50,12.00
2014,06,07,04,51,12.00
2014,06,07,04,52,12.00
2014,06,07,04,53,12.00
2014,06,07,04,54,12.00
2014,06,07,04,55,12.10
2014,06,07,04,56,12.00
2014,06,07,04,57,12.10
2014,06,07,04,58,12.00
2014,06,07,04,59,12.10
2014,06,07,05,00,12.00
2014,06,07,05,01,12.00
2014,06,07,05,02,12.00
2014,06,07,05,03,12.00
2014,06,07,05,04,12.00
2014,06,07,05,05,12.00
2014,06,07,05,06,12.00
2014,06,07,05,07,12.00
2014,06,07,05,08,12.00
2014,06,07,05,09,12.00
2014,06,07,05,10,12.00
2014,06,07,05,11,12.00
2014,06,07,05,12,12.00
2014,06,07,05,13,12.00
2014,06,07,05,14,12.00
2014,06,07,05,15,12.00
2014,06,07,05,16,12.00
2014,06,07,05,17,12.00
2014,06,07,05,18,12.00
2014,06,07,05,19,12.00
2014,06,07,05,20,12.00
2014,06,07,05,21,12.00
2014,06,07,05,22,12.00
2014,06,07,05,23,11.90
2014,06,07,05,24,11.90
2014,06,07,05,25,11.90
2014,06,07,05,26,11.90
2014,06,07,05,27,11.90
2014,06,07,05,28,11.90
2014,06,07,05,29,11.90
2014,06,07,05,30,11.90
2014,06,07,05,31,11.90
2014,06,07,05,32,11.90
2014,06,07,05,33,11.90
2014,06,07,05,34,11.90
2014,06,07,05,35,11.90
2014,06,07,05,36,11.90
2014,06,07,05,37,11.90
2014,06,07,05,38,11.90
2014,06,07,05,39,11.90
2014,06,07,05,40,11.90
2014,06,07,05,41,11.90
2014,06,07,05,42,11.90
2014,06,07,05,43,11.90
2014,06,07,05,44,11.90
2014,06,07,05,45,11.90
2014,06,07,05,46,11.90
2014,06,07,05,47,11.90
2014,06,07,05,48,11.90
2014,06,07,05,49,11.90
2014,06,07,05,50,11.90
2014,06,07,05,51,11.90
2014,06,07,05,52,11.90
2014,06,07,05,53,11.80
2014,06,07,05,54,11.90
2014,06,07,05,55,11.90
2014,06,07,05,56,11.90
2014,06,07,05,57,11.90
2014,06,07,05,58,11.90
2014,06,07,05,59,11.90
2014,06,07,06,00,11.90
2014,06,07,06,01,11.90
2014,06,07,06,02,11.90
2014,06,07,06,03,11.90
2014,06,07,06,04,11.90
2014,06,07,06,05,11.80
2014,06,07,06,06,11.90
2014,06,07,06,07,11.90
2014,06,07,06,08,11.90
2014,06,07,06,09,11.90
2014,06,07,06,10,11.90
2014,06,07,06,11,11.90
2014,06,07,06,12,11.90
2014,06,07,06,13,11.80
2014,06,07,06,14,11.80
2014,06,07,06,15,11.80
2014,06,07,06,16,11.80
2014,06,07,06,17,11.80
2014,06,07,06,18,11.80
2014,06,07,06,19,11.80
2014,06,07,06,20,11.80
2014,06,07,06,21,11.80
2014,06,07,06,22,11.80
2014,06,07,06,23,11.80
2014,06,07,06,24,11.80
2014,06,07,06,25,11.80
2014,06,07,06,26,11.80
2014,06,07,06,27,11.80
2014,06,07,06,28,11.80
2014,06,07,06,29,11.80
2014,06,07,06,30,11.80
2014,06,07,06,31,11.80
2014,06,07,06,32,11.80
2014,06,07,06,33,11.80
2014,06,07,06,34,11.80
2014,06,07,06,35,11.80
2014,06,07,06,36,11.80
2014,06,07,06,37,11.80
2014,06,07,06,38,11.90
2014,06,07,06,39,11.90
2014,06,07,06,40,11.90
2014,06,07,06,41,11.90
2014,06,07,06,42,11.90
2014,06,07,06,43,11.90
2014,06,07,06,44,11.90
2014,06,07,06,45,11.90
2014,06,07,06,46,11.90
2014,06,07,06,47,11.90
2014,06,07,06,48,11.90
2014,06,07,06,49,11.90
2014,06,07,06,50,11.90
2014,06,07,06,51,11.90
2014,06,07,06,52,11.90
2014,06,07,06,53,11.90
2014,06,07,06,54,12.00
2014,06,07,06,55,12.00
2014,06,07,06,56,12.00
2014,06,07,06,57,12.00
2014,06,07,06,58,12.00
2014,06,07,06,59,12.00
2014,06,07,07,00,12.10
2014,06,07,07,01,12.10
2014,06,07,07,02,12.10
2014,06,07,07,03,12.10
2014,06,07,07,04,12.10
2014,06,07,07,05,12.10
2014,06,07,07,06,12.10
2014,06,07,07,07,12.20
2014,06,07,07,08,12.20
2014,06,07,07,09,12.20
2014,06,07,07,10,12.20
2014,06,07,07,11,12.20
2014,06,07,07,12,12.20
2014,06,07,07,13,12.20
2014,06,07,07,14,12.20
2014,06,07,07,15,12.30
2014,06,07,07,16,12.30
2014,06,07,07,17,12.30
2014,06,07,07,18,12.30
2014,06,07,07,19,12.30
2014,06,07,07,20,12.30
2014,06,07,07,21,12.40
2014,06,07,07,22,12.40
2014,06,07,07,23,12.40
2014,06,07,07,24,12.50
2014,06,07,07,25,12.50
2014,06,07,07,26,12.50
2014,06,07,07,27,12.60
2014,06,07,07,28,12.60
2014,06,07,07,29,12.70
2014,06,07,07,30,12.70
2014,06,07,07,31,12.70
2014,06,07,07,32,12.70
2014,06,07,07,33,12.80
2014,06,07,07,34,12.80
2014,06,07,07,35,12.80
2014,06,07,07,36,12.80
2014,06,07,07,37,12.90
2014,06,07,07,38,12.90
2014,06,07,07,39,12.90
2014,06,07,07,40,12.90
2014,06,07,07,41,13.00
2014,06,07,07,42,13.00
2014,06,07,07,43,13.00
2014,06,07,07,44,13.10
2014,06,07,07,45,13.10
2014,06,07,07,46,13.10
2014,06,07,07,47,13.10
2014,06,07,07,48,13.20
2014,06,07,07,49,13.20
2014,06,07,07,50,13.20
2014,06,07,07,51,13.20
2014,06,07,07,52,13.30
2014,06,07,07,53,13.30
2014,06,07,07,54,13.30
2014,06,07,07,55,13.40
2014,06,07,07,56,13.40
2014,06,07,07,57,13.50
2014,06,07,07,58,13.50
2014,06,07,07,59,13.60
2014,06,07,08,00,13.60
2014,06,07,08,01,13.60
2014,06,07,08,02,13.70
2014,06,07,08,03,13.70
2014,06,07,08,04,13.80
2014,06,07,08,05,13.80
2014,06,07,08,06,13.80
2014,06,07,08,07,13.80
2014,06,07,08,08,13.90
2014,06,07,08,09,13.90
2014,06,07,08,10,14.00
2014,06,07,08,11,14.00
2014,06,07,08,12,14.10
2014,06,07,08,13,14.10
2014,06,07,08,14,14.10
2014,06,07,08,15,14.20
2014,06,07,08,16,14.20
2014,06,07,08,17,14.30
2014,06,07,08,18,14.30
2014,06,07,08,19,14.30
2014,06,07,08,20,14.30
2014,06,07,08,21,14.40
2014,06,07,08,22,14.40
2014,06,07,08,23,14.50
2014,06,07,08,24,14.50
2014,06,07,08,25,14.50
2014,06,07,08,26,14.50
2014,06,07,08,27,14.60
2014,06,07,08,28,14.60
2014,06,07,08,29,14.60
2014,06,07,08,30,14.70
2014,06,07,08,31,14.70
2014,06,07,08,32,14.70
2014,06,07,08,33,14.80
2014,06,07,08,34,14.80
2014,06,07,08,35,14.80
2014,06,07,08,36,14.90
2014,06,07,08,37,14.90
2014,06,07,08,38,15.00
2014,06,07,08,39,15.10
2014,06,07,08,40,15.10
2014,06,07,08,41,15.20
2014,06,07,08,42,15.20
2014,06,07,08,43,15.30
2014,06,07,08,44,15.30
2014,06,07,08,45,15.40
2014,06,07,08,46,15.50
2014,06,07,08,47,15.50
2014,06,07,08,48,15.60
2014,06,07,08,49,15.70
2014,06,07,08,50,15.90
2014,06,07,08,51,16.00
2014,06,07,08,52,16.10
2014,06,07,08,53,16.30
2014,06,07,08,54,16.40
2014,06,07,08,55,16.50
2014,06,07,08,56,16.50
2014,06,07,08,57,16.60
2014,06,07,08,58,16.70
2014,06,07,08,59,16.80
2014,06,07,09,00,16.80
2014,06,07,09,01,16.90
2014,06,07,09,02,17.00
2014,06,07,09,03,17.10
2014,06,07,09,04,17.20
2014,06,07,09,05,17.30
2014,06,07,09,06,17.40
2014,06,07,09,07,17.50
2014,06,07,09,08,17.50
2014,06,07,09,09,17.60
2014,06,07,09,10,17.60
2014,06,07,09,11,17.60
2014,06,07,09,12,17.70
2014,06,07,09,13,17.70
2014,06,07,09,14,17.80
2014,06,07,09,15,17.90
2014,06,07,09,16,17.90
2014,06,07,09,17,18.00
2014,06,07,09,18,18.10
2014,06,07,09,19,18.20
2014,06,07,09,20,18.30
2014,06,07,09,21,18.30
2014,06,07,09,22,18.30
2014,06,07,09,23,18.40
2014,06,07,09,24,18.40
2014,06,07,09,25,18.50
2014,06,07,09,26,18.50
2014,06,07,09,27,18.60
2014,06,07,09,28,18.60
2014,06,07,09,29,18.60
2014,06,07,09,30,18.60
2014,06,07,09,31,18.70
2014,06,07,09,32,18.70
2014,06,07,09,33,18.70
2014,06,07,09,34,18.80
2014,06,07,09,35,18.80
2014,06,07,09,36,18.90
2014,06,07,09,37,18.90
2014,06,07,09,38,19.00
2014,06,07,09,39,19.00
2014,06,07,09,40,19.10
2014,06,07,09,41,19.10
2014,06,07,09,42,19.10
2014,06,07,09,43,19.00
2014,06,07,09,44,19.00
2014,06,07,09,45,19.00
2014,06,07,09,46,19.00
2014,06,07,09,47,19.00
2014,06,07,09,48,19.00
2014,06,07,09,49,19.00
2014,06,07,09,50,19.00
2014,06,07,09,51,19.00
2014,06,07,09,52,19.00
2014,06,07,09,53,19.10
2014,06,07,09,54,19.00
2014,06,07,09,55,19.00
2014,06,07,09,56,19.00
2014,06,07,09,57,19.00
2014,06,07,09,58,19.00
2014,06,07,09,59,19.10
2014,06,07,10,00,19.10
2014,06,07,10,01,19.10
2014,06,07,10,02,19.10
2014,06,07,10,03,19.10
2014,06,07,10,04,19.00
2014,06,07,10,05,19.00
2014,06,07,10,06,18.90
2014,06,07,10,07,18.90
2014,06,07,10,08,18.80
2014,06,07,10,09,18.80
2014,06,07,10,10,18.80
2014,06,07,10,11,18.80
2014,06,07,10,12,18.80
2014,06,07,10,13,18.70
2014,06,07,10,14,18.70
2014,06,07,10,15,18.80
2014,06,07,10,16,18.80
2014,06,07,10,17,18.80
2014,06,07,10,18,18.80
2014,06,07,10,19,18.80
2014,06,07,10,20,18.80
2014,06,07,10,21,18.70
2014,06,07,10,22,18.70
2014,06,07,10,23,18.70
2014,06,07,10,24,18.70
2014,06,07,10,25,18.70
2014,06,07,10,26,18.70
2014,06,07,10,27,18.70
2014,06,07,10,28,18.80
2014,06,07,10,29,18.80
2014,06,07,10,30,18.80
2014,06,07,10,31,18.80
2014,06,07,10,32,18.80
2014,06,07,10,33,18.80
2014,06,07,10,34,18.80
2014,06,07,10,35,18.80
2014,06,07,10,36,18.90
2014,06,07,10,37,18.90
2014,06,07,10,38,18.90
2014,06,07,10,39,19.00
2014,06,07,10,40,19.00
2014,06,07,10,41,19.10
2014,06,07,10,42,19.10
2014,06,07,10,43,19.20
2014,06,07,10,44,19.20
2014,06,07,10,45,19.30
2014,06,07,10,46,19.30
2014,06,07,10,47,19.30
2014,06,07,10,48,19.30
2014,06,07,10,49,19.20
2014,06,07,10,50,19.20
2014,06,07,10,51,19.20
2014,06,07,10,52,19.20
2014,06,07,10,53,19.20
2014,06,07,10,54,19.20
2014,06,07,10,55,19.20
2014,06,07,10,56,19.30
2014,06,07,10,57,19.30
2014,06,07,10,58,19.30
2014,06,07,10,59,19.30
2014,06,07,11,00,19.30
2014,06,07,11,01,19.30
2014,06,07,11,02,19.30
2014,06,07,11,03,19.30
2014,06,07,11,04,19.30
2014,06,07,11,05,19.30
2014,06,07,11,06,19.40
2014,06,07,11,07,19.40
2014,06,07,11,08,19.40
2014,06,07,11,09,19.40
2014,06,07,11,10,19.40
2014,06,07,11,11,19.40
2014,06,07,11,12,19.40
2014,06,07,11,13,19.50
2014,06,07,11,14,19.60
2014,06,07,11,15,19.60
2014,06,07,11,16,19.60
2014,06,07,11,17,19.60
2014,06,07,11,18,19.60
2014,06,07,11,19,19.70
2014,06,07,11,20,19.70
2014,06,07,11,21,19.70
2014,06,07,11,22,19.60
2014,06,07,11,23,19.60
2014,06,07,11,24,19.60
2014,06,07,11,25,19.60
2014,06,07,11,26,19.60
2014,06,07,11,27,19.50
2014,06,07,11,28,19.40
2014,06,07,11,29,19.30
2014,06,07,11,30,19.30
2014,06,07,11,31,19.30
2014,06,07,11,32,19.30
2014,06,07,11,33,19.30
2014,06,07,11,34,19.30
2014,06,07,11,35,19.30
2014,06,07,11,36,19.30
2014,06,07,11,37,19.30
2014,06,07,11,38,19.30
2014,06,07,11,39,19.20
2014,06,07,11,40,19.10
2014,06,07,11,41,19.00
2014,06,07,11,42,19.00
2014,06,07,11,43,19.00
2014,06,07,11,44,19.00
2014,06,07,11,45,19.10
2014,06,07,11,46,19.10
2014,06,07,11,47,19.10
2014,06,07,11,48,19.10
2014,06,07,11,49,19.10
2014,06,07,11,50,19.00
2014,06,07,11,51,19.00
2014,06,07,11,52,19.00
2014,06,07,11,53,19.00
2014,06,07,11,54,19.10
2014,06,07,11,55,19.10
2014,06,07,11,56,19.10
2014,06,07,11,57,19.20
2014,06,07,11,58,19.20
2014,06,07,11,59,19.20
2014,06,07,12,00,19.20
2014,06,07,12,01,19.20
2014,06,07,12,02,19.20
2014,06,07,12,03,19.30
2014,06,07,12,04,19.30
2014,06,07,12,05,19.30
2014,06,07,12,06,19.40
2014,06,07,12,07,19.40
2014,06,07,12,08,19.50
2014,06,07,12,09,19.50
2014,06,07,12,10,19.50
2014,06,07,12,11,19.50
2014,06,07,12,12,19.40
2014,06,07,12,13,19.40
2014,06,07,12,14,19.40
2014,06,07,12,15,19.40
2014,06,07,12,16,19.30
2014,06,07,12,17,19.30
2014,06,07,12,18,19.30
2014,06,07,12,19,19.30
2014,06,07,12,20,19.30
2014,06,07,12,21,19.40
2014,06,07,12,22,19.40
2014,06,07,12,23,19.40
2014,06,07,12,24,19.30
2014,06,07,12,25,19.30
2014,06,07,12,26,19.20
2014,06,07,12,27,19.20
2014,06,07,12,28,19.10
2014,06,07,12,29,19.20
2014,06,07,12,30,19.20
2014,06,07,12,31,19.20
2014,06,07,12,32,19.20
2014,06,07,12,33,19.20
2014,06,07,12,34,19.20
2014,06,07,12,35,19.20
2014,06,07,12,36,19.30
2014,06,07,12,37,19.30
2014,06,07,12,38,19.30
2014,06,07,12,39,19.30
2014,06,07,12,40,19.30
2014,06,07,12,41,19.30
2014,06,07,12,42,19.30
2014,06,07,12,43,19.30
2014,06,07,12,44,19.30
2014,06,07,12,45,19.30
2014,06,07,12,46,19.40
2014,06,07,12,47,19.40
2014,06,07,12,48,19.50
2014,06,07,12,49,19.50
2014,06,07,12,50,19.60
2014,06,07,12,51,19.60
2014,06,07,12,52,19.60
2014,06,07,12,53,19.60
2014,06,07,12,54,19.70
2014,06,07,12,55,19.70
2014,06,07,12,56,19.70
2014,06,07,12,57,19.80
2014,06,07,12,58,19.80
2014,06,07,12,59,19.80
2014,06,07,13,00,19.80
2014,06,07,13,01,19.80
2014,06,07,13,02,19.70
2014,06,07,13,03,19.70
2014,06,07,13,04,19.60
2014,06,07,13,05,19.50
2014,06,07,13,06,19.50
2014,06,07,13,07,19.40
2014,06,07,13,08,19.30
2014,06,07,13,09,19.30
2014,06,07,13,10,19.40
2014,06,07,13,11,19.40
2014,06,07,13,12,19.50
2014,06,07,13,13,19.60
2014,06,07,13,14,19.70
2014,06,07,13,15,19.80
2014,06,07,13,16,19.80
2014,06,07,13,17,19.90
2014,06,07,13,18,19.90
2014,06,07,13,19,19.90
2014,06,07,13,20,19.90
2014,06,07,13,21,19.90
2014,06,07,13,22,19.80
2014,06,07,13,23,19.80
2014,06,07,13,24,19.80
2014,06,07,13,25,19.80
2014,06,07,13,26,19.70
2014,06,07,13,27,19.70
2014,06,07,13,28,19.70
2014,06,07,13,29,19.70
2014,06,07,13,30,19.80
2014,06,07,13,31,19.80
2014,06,07,13,32,19.80
2014,06,07,13,33,19.90
2014,06,07,13,34,19.90
2014,06,07,13,35,19.90
2014,06,07,13,36,19.80
2014,06,07,13,37,19.80
2014,06,07,13,38,19.80
2014,06,07,13,39,19.80
2014,06,07,13,40,19.80
2014,06,07,13,41,19.80
2014,06,07,13,42,19.90
2014,06,07,13,43,19.90
2014,06,07,13,44,19.90
2014,06,07,13,45,19.90
2014,06,07,13,46,19.80
2014,06,07,13,47,19.80
2014,06,07,13,48,19.80
2014,06,07,13,49,19.80
2014,06,07,13,50,19.80
2014,06,07,13,51,19.80
2014,06,07,13,52,19.80
2014,06,07,13,53,19.80
2014,06,07,13,54,19.90
2014,06,07,13,55,19.90
2014,06,07,13,56,19.90
2014,06,07,13,57,19.90
2014,06,07,13,58,19.90
2014,06,07,13,59,19.90
2014,06,07,14,00,19.90
2014,06,07,14,01,19.90
2014,06,07,14,02,19.80
2014,06,07,14,03,19.80
2014,06,07,14,04,19.80
2014,06,07,14,05,19.90
2014,06,07,14,06,19.90
2014,06,07,14,07,19.90
2014,06,07,14,08,19.90
2014,06,07,14,09,19.90
2014,06,07,14,10,19.90
2014,06,07,14,11,20.00
2014,06,07,14,12,20.00
2014,06,07,14,13,20.00
2014,06,07,14,14,19.90
2014,06,07,14,15,19.90
2014,06,07,14,16,19.90
2014,06,07,14,17,19.80
2014,06,07,14,18,19.80
2014,06,07,14,19,19.90
2014,06,07,14,20,19.90
2014,06,07,14,21,20.00
2014,06,07,14,22,20.10
2014,06,07,14,23,20.10
2014,06,07,14,24,20.10
2014,06,07,14,25,20.10
2014,06,07,14,26,20.10
2014,06,07,14,27,20.20
2014,06,07,14,28,20.30
2014,06,07,14,29,20.30
2014,06,07,14,30,20.30
2014,06,07,14,31,20.30
2014,06,07,14,32,20.30
2014,06,07,14,33,20.30
2014,06,07,14,34,20.30
2014,06,07,14,35,20.30
2014,06,07,14,36,20.30
2014,06,07,14,37,20.30
2014,06,07,14,38,20.30
2014,06,07,14,39,20.30
2014,06,07,14,40,20.30
2014,06,07,14,41,20.40
2014,06,07,14,42,20.40
2014,06,07,14,43,20.30
2014,06,07,14,44,20.30
2014,06,07,14,45,20.30
2014,06,07,14,46,20.30
2014,06,07,14,47,20.30
2014,06,07,14,48,20.30
2014,06,07,14,49,20.40
2014,06,07,14,50,20.40
2014,06,07,14,51,20.40
2014,06,07,14,52,20.40
2014,06,07,14,53,20.40
2014,06,07,14,54,20.40
2014,06,07,14,55,20.40
2014,06,07,14,56,20.40
2014,06,07,14,57,20.50
2014,06,07,14,58,20.50
2014,06,07,14,59,20.60
2014,06,07,15,00,20.60
2014,06,07,15,01,20.70
2014,06,07,15,02,20.70
2014,06,07,15,03,20.80
2014,06,07,15,04,20.80
2014,06,07,15,05,20.80
2014,06,07,15,06,20.90
2014,06,07,15,07,20.90
2014,06,07,15,08,20.90
2014,06,07,15,09,21.00
2014,06,07,15,10,21.00
2014,06,07,15,11,21.10
2014,06,07,15,12,21.10
2014,06,07,15,13,21.10
2014,06,07,15,14,21.00
2014,06,07,15,15,21.00
2014,06,07,15,16,20.90
2014,06,07,15,17,20.90
2014,06,07,15,18,20.80
2014,06,07,15,19,20.80
2014,06,07,15,20,20.70
2014,06,07,15,21,20.70
2014,06,07,15,22,20.80
2014,06,07,15,23,20.80
2014,06,07,15,24,20.80
2014,06,07,15,25,20.80
2014,06,07,15,26,20.80
2014,06,07,15,27,20.80
2014,06,07,15,28,20.80
2014,06,07,15,29,20.80
2014,06,07,15,30,20.80
2014,06,07,15,31,20.80
2014,06,07,15,32,20.80
2014,06,07,15,33,20.90
2014,06,07,15,34,20.90
2014,06,07,15,35,20.90
2014,06,07,15,36,20.90
2014,06,07,15,37,20.90
2014,06,07,15,38,20.90
2014,06,07,15,39,20.90
2014,06,07,15,40,20.90
2014,06,07,15,41,21.00
2014,06,07,15,42,21.00
2014,06,07,15,43,21.00
2014,06,07,15,44,20.90
2014,06,07,15,45,20.90
2014,06,07,15,46,20.90
2014,06,07,15,47,20.90
2014,06,07,15,48,20.90
2014,06,07,15,49,20.90
2014,06,07,15,50,21.00
2014,06,07,15,51,21.00
2014,06,07,15,52,21.00
2014,06,07,15,53,21.10
2014,06,07,15,54,21.10
2014,06,07,15,55,21.20
2014,06,07,15,56,21.20
2014,06,07,15,57,21.20
2014,06,07,15,58,21.20
2014,06,07,15,59,21.10
2014,06,07,16,00,21.10
2014,06,07,16,01,21.10
2014,06,07,16,02,21.10
2014,06,07,16,03,21.10
2014,06,07,16,04,21.00
2014,06,07,16,05,21.00
2014,06,07,16,06,21.10
2014,06,07,16,07,21.10
2014,06,07,16,08,21.10
2014,06,07,16,09,21.20
2014,06,07,16,10,21.20
2014,06,07,16,11,21.20
2014,06,07,16,12,21.20
2014,06,07,16,13,21.20
2014,06,07,16,14,21.20
2014,06,07,16,15,21.30
2014,06,07,16,16,21.30
2014,06,07,16,17,21.30
2014,06,07,16,18,21.30
2014,06,07,16,19,21.30
2014,06,07,16,20,21.30
2014,06,07,16,21,21.30
2014,06,07,16,22,21.30
2014,06,07,16,23,21.30
2014,06,07,16,24,21.30
2014,06,07,16,25,21.30
2014,06,07,16,26,21.30
2014,06,07,16,27,21.40
2014,06,07,16,28,21.40
2014,06,07,16,29,21.40
2014,06,07,16,30,21.40
2014,06,07,16,31,21.40
2014,06,07,16,32,21.40
2014,06,07,16,33,21.30
2014,06,07,16,34,21.20
2014,06,07,16,35,21.20
2014,06,07,16,36,21.20
2014,06,07,16,37,21.10
2014,06,07,16,38,21.20
2014,06,07,16,39,21.20
2014,06,07,16,40,21.20
2014,06,07,16,41,21.20
2014,06,07,16,42,21.30
2014,06,07,16,43,21.30
2014,06,07,16,44,21.40
2014,06,07,16,45,21.40
2014,06,07,16,46,21.40
2014,06,07,16,47,21.40
2014,06,07,16,48,21.40
2014,06,07,16,49,21.30
2014,06,07,16,50,21.30
2014,06,07,16,51,21.30
2014,06,07,16,52,21.20
2014,06,07,16,53,21.30
2014,06,07,16,54,21.30
2014,06,07,16,55,21.30
2014,06,07,16,56,21.30
2014,06,07,16,57,21.30
2014,06,07,16,58,21.30
2014,06,07,16,59,21.40
2014,06,07,17,00,21.40
2014,06,07,17,01,21.40
2014,06,07,17,02,21.40
2014,06,07,17,03,21.50
2014,06,07,17,04,21.50
2014,06,07,17,05,21.50
2014,06,07,17,06,21.50
2014,06,07,17,07,21.50
2014,06,07,17,08,21.50
2014,06,07,17,09,21.60
2014,06,07,17,10,21.60
2014,06,07,17,11,21.50
2014,06,07,17,12,21.50
2014,06,07,17,13,21.50
2014,06,07,17,14,21.40
2014,06,07,17,15,21.40
2014,06,07,17,16,21.50
2014,06,07,17,17,21.50
2014,06,07,17,18,21.50
2014,06,07,17,19,21.60